Year,Month,Day,Hour,Minute,Value (Times are PST for temperature in C)
2009,03,18,00,00,2.60
2009,03,18,00,01,2.60
2009,03,18,00,02,2.60
2009,03,18,00,03,2.60
2009,03,18,00,04,2.60
2009,03,18,00,05,2.60
2009,03,18,00,06,2.60
2009,03,18,00,07,2.60
2009,03,18,00,08,2.60
2009,03,18,00,09,2.60
2009,03,18,00,10,2.60
2009,03,18,00,11,2.60
2009,03,18,00,12,2.60
2009,03,18,00,13,2.60
2009,03,18,00,14,2.60
2009,03,18,00,15,2.50
2009,03,18,00,16,2.50
2009,03,18,00,17,2.50
2009,03,18,00,18,2.50
2009,03,18,00,19,2.50
2009,03,18,00,20,2.40
2009,03,18,00,21,2.40
2009,03,18,00,22,2.40
2009,03,18,00,23,2.50
2009,03,18,00,24,2.50
2009,03,18,00,25,2.50
2009,03,18,00,26,2.50
2009,03,18,00,27,2.50
2009,03,18,00,28,2.50
2009,03,18,00,29,2.50
2009,03,18,00,30,2.50
2009,03,18,00,31,2.40
2009,03,18,00,32,2.40
2009,03,18,00,33,2.40
2009,03,18,00,34,2.40
2009,03,18,00,35,2.30
2009,03,18,00,36,2.30
2009,03,18,00,37,2.30
2009,03,18,00,38,2.30
2009,03,18,00,39,2.30
2009,03,18,00,40,2.30
2009,03,18,00,41,2.30
2009,03,18,00,42,2.30
2009,03,18,00,43,2.30
2009,03,18,00,44,2.30
2009,03,18,00,45,2.30
2009,03,18,00,46,2.30
2009,03,18,00,47,2.30
2009,03,18,00,48,2.30
2009,03,18,00,49,2.30
2009,03,18,00,50,2.30
2009,03,18,00,51,2.30
2009,03,18,00,52,2.30
2009,03,18,00,53,2.30
2009,03,18,00,54,2.30
2009,03,18,00,55,2.40
2009,03,18,00,56,2.40
2009,03,18,00,57,2.40
2009,03,18,00,58,2.40
2009,03,18,00,59,2.40
2009,03,18,01,00,2.50
2009,03,18,01,01,2.50
2009,03,18,01,02,2.50
2009,03,18,01,03,2.50
2009,03,18,01,04,2.50
2009,03,18,01,05,2.40
2009,03,18,01,06,2.40
2009,03,18,01,07,2.40
2009,03,18,01,08,2.40
2009,03,18,01,09,2.40
2009,03,18,01,10,2.40
2009,03,18,01,11,2.40
2009,03,18,01,12,2.40
2009,03,18,01,13,2.40
2009,03,18,01,14,2.30
2009,03,18,01,15,2.30
2009,03,18,01,16,2.30
2009,03,18,01,17,2.40
2009,03,18,01,18,2.40
2009,03,18,01,19,2.40
2009,03,18,01,20,2.40
2009,03,18,01,21,2.40
2009,03,18,01,22,2.50
2009,03,18,01,23,2.50
2009,03,18,01,24,2.40
2009,03,18,01,25,2.40
2009,03,18,01,26,2.40
2009,03,18,01,27,2.40
2009,03,18,01,28,2.40
2009,03,18,01,29,2.40
2009,03,18,01,30,2.40
2009,03,18,01,31,2.40
2009,03,18,01,32,2.40
2009,03,18,01,33,2.40
2009,03,18,01,34,2.50
2009,03,18,01,35,2.50
2009,03,18,01,36,2.50
2009,03,18,01,37,2.50
2009,03,18,01,38,2.50
2009,03,18,01,39,2.50
2009,03,18,01,40,2.40
2009,03,18,01,41,2.40
2009,03,18,01,42,2.40
2009,03,18,01,43,2.50
2009,03,18,01,44,2.50
2009,03,18,01,45,2.50
2009,03,18,01,46,2.50
2009,03,18,01,47,2.60
2009,03,18,01,48,2.60
2009,03,18,01,49,2.70
2009,03,18,01,50,2.70
2009,03,18,01,51,2.70
2009,03,18,01,52,2.70
2009,03,18,01,53,2.70
2009,03,18,01,54,2.70
2009,03,18,01,55,2.70
2009,03,18,01,56,2.70
2009,03,18,01,57,2.70
2009,03,18,01,58,2.70
2009,03,18,01,59,2.70
2009,03,18,02,00,2.70
2009,03,18,02,01,2.70
2009,03,18,02,02,2.70
2009,03,18,02,03,2.70
2009,03,18,02,04,2.70
2009,03,18,02,05,2.80
2009,03,18,02,06,2.80
2009,03,18,02,07,2.80
2009,03,18,02,08,2.80
2009,03,18,02,09,2.80
2009,03,18,02,10,2.80
2009,03,18,02,11,2.80
2009,03,18,02,12,2.90
2009,03,18,02,13,2.90
2009,03,18,02,14,2.90
2009,03,18,02,15,2.90
2009,03,18,02,16,2.90
2009,03,18,02,17,2.90
2009,03,18,02,18,2.80
2009,03,18,02,19,2.80
2009,03,18,02,20,2.70
2009,03,18,02,21,2.70
2009,03,18,02,22,2.70
2009,03,18,02,23,2.70
2009,03,18,02,24,2.70
2009,03,18,02,25,2.70
2009,03,18,02,26,2.60
2009,03,18,02,27,2.60
2009,03,18,02,28,2.60
2009,03,18,02,29,2.60
2009,03,18,02,30,2.60
2009,03,18,02,31,2.60
2009,03,18,02,32,2.60
2009,03,18,02,33,2.50
2009,03,18,02,34,2.50
2009,03,18,02,35,2.50
2009,03,18,02,36,2.50
2009,03,18,02,37,2.60
2009,03,18,02,38,2.60
2009,03,18,02,39,2.60
2009,03,18,02,40,2.60
2009,03,18,02,41,2.60
2009,03,18,02,42,2.70
2009,03,18,02,43,2.70
2009,03,18,02,44,2.70
2009,03,18,02,45,2.70
2009,03,18,02,46,2.70
2009,03,18,02,47,2.70
2009,03,18,02,48,2.70
2009,03,18,02,49,2.80
2009,03,18,02,50,2.80
2009,03,18,02,51,2.80
2009,03,18,02,52,2.80
2009,03,18,02,53,2.80
2009,03,18,02,54,2.90
2009,03,18,02,55,2.90
2009,03,18,02,56,2.90
2009,03,18,02,57,3.00
2009,03,18,02,58,3.10
2009,03,18,02,59,3.10
2009,03,18,03,00,3.10
2009,03,18,03,01,3.10
2009,03,18,03,02,3.10
2009,03,18,03,03,3.10
2009,03,18,03,04,3.10
2009,03,18,03,05,3.10
2009,03,18,03,06,3.10
2009,03,18,03,07,3.10
2009,03,18,03,08,3.20
2009,03,18,03,09,3.20
2009,03,18,03,10,3.30
2009,03,18,03,11,3.30
2009,03,18,03,12,3.30
2009,03,18,03,13,3.40
2009,03,18,03,14,3.60
2009,03,18,03,15,3.60
2009,03,18,03,16,3.70
2009,03,18,03,17,3.70
2009,03,18,03,18,3.70
2009,03,18,03,19,3.80
2009,03,18,03,20,3.90
2009,03,18,03,21,4.00
2009,03,18,03,22,4.10
2009,03,18,03,23,4.20
2009,03,18,03,24,4.20
2009,03,18,03,25,4.30
2009,03,18,03,26,4.30
2009,03,18,03,27,4.40
2009,03,18,03,28,4.40
2009,03,18,03,29,4.40
2009,03,18,03,30,4.50
2009,03,18,03,31,4.50
2009,03,18,03,32,4.50
2009,03,18,03,33,4.50
2009,03,18,03,34,4.50
2009,03,18,03,35,4.60
2009,03,18,03,36,4.60
2009,03,18,03,37,4.60
2009,03,18,03,38,4.60
2009,03,18,03,39,4.60
2009,03,18,03,40,4.60
2009,03,18,03,41,4.60
2009,03,18,03,42,4.60
2009,03,18,03,43,4.50
2009,03,18,03,44,4.50
2009,03,18,03,45,4.50
2009,03,18,03,46,4.50
2009,03,18,03,47,4.50
2009,03,18,03,48,4.50
2009,03,18,03,49,4.50
2009,03,18,03,50,4.50
2009,03,18,03,51,4.50
2009,03,18,03,52,4.50
2009,03,18,03,53,4.50
2009,03,18,03,54,4.50
2009,03,18,03,55,4.50
2009,03,18,03,56,4.50
2009,03,18,03,57,4.50
2009,03,18,03,58,4.50
2009,03,18,03,59,4.50
2009,03,18,04,00,4.50
2009,03,18,04,01,4.50
2009,03,18,04,02,4.50
2009,03,18,04,03,4.50
2009,03,18,04,04,4.50
2009,03,18,04,05,4.50
2009,03,18,04,06,4.50
2009,03,18,04,07,4.60
2009,03,18,04,08,4.60
2009,03,18,04,09,4.60
2009,03,18,04,10,4.60
2009,03,18,04,11,4.60
2009,03,18,04,12,4.60
2009,03,18,04,13,4.60
2009,03,18,04,14,4.60
2009,03,18,04,15,4.60
2009,03,18,04,16,4.60
2009,03,18,04,17,4.60
2009,03,18,04,18,4.60
2009,03,18,04,19,4.60
2009,03,18,04,20,4.60
2009,03,18,04,21,4.60
2009,03,18,04,22,4.60
2009,03,18,04,23,4.60
2009,03,18,04,24,4.60
2009,03,18,04,25,4.60
2009,03,18,04,26,4.60
2009,03,18,04,27,4.60
2009,03,18,04,28,4.60
2009,03,18,04,29,4.60
2009,03,18,04,30,4.60
2009,03,18,04,31,4.60
2009,03,18,04,32,4.60
2009,03,18,04,33,4.60
2009,03,18,04,34,4.60
2009,03,18,04,35,4.60
2009,03,18,04,36,4.60
2009,03,18,04,37,4.60
2009,03,18,04,38,4.60
2009,03,18,04,39,4.60
2009,03,18,04,40,4.60
2009,03,18,04,41,4.60
2009,03,18,04,42,4.60
2009,03,18,04,43,4.60
2009,03,18,04,44,4.70
2009,03,18,04,45,4.70
2009,03,18,04,46,4.70
2009,03,18,04,47,4.70
2009,03,18,04,48,4.70
2009,03,18,04,49,4.70
2009,03,18,04,50,4.70
2009,03,18,04,51,4.70
2009,03,18,04,52,4.70
2009,03,18,04,53,4.70
2009,03,18,04,54,4.70
2009,03,18,04,55,4.70
2009,03,18,04,56,4.70
2009,03,18,04,57,4.70
2009,03,18,04,58,4.70
2009,03,18,04,59,4.70
2009,03,18,05,00,4.70
2009,03,18,05,01,4.70
2009,03,18,05,02,4.70
2009,03,18,05,03,4.70
2009,03,18,05,04,4.70
2009,03,18,05,05,4.80
2009,03,18,05,06,4.80
2009,03,18,05,07,4.80
2009,03,18,05,08,4.80
2009,03,18,05,09,4.80
2009,03,18,05,10,4.80
2009,03,18,05,11,4.80
2009,03,18,05,12,4.80
2009,03,18,05,13,4.80
2009,03,18,05,14,4.80
2009,03,18,05,15,4.80
2009,03,18,05,16,4.90
2009,03,18,05,17,4.90
2009,03,18,05,18,4.90
2009,03,18,05,19,4.90
2009,03,18,05,20,4.90
2009,03,18,05,21,4.90
2009,03,18,05,22,4.90
2009,03,18,05,23,4.90
2009,03,18,05,24,4.90
2009,03,18,05,25,4.90
2009,03,18,05,26,4.90
2009,03,18,05,27,4.90
2009,03,18,05,28,4.90
2009,03,18,05,29,4.90
2009,03,18,05,30,4.90
2009,03,18,05,31,4.90
2009,03,18,05,32,4.80
2009,03,18,05,33,4.80
2009,03,18,05,34,4.80
2009,03,18,05,35,4.80
2009,03,18,05,36,4.80
2009,03,18,05,37,4.80
2009,03,18,05,38,4.80
2009,03,18,05,39,4.80
2009,03,18,05,40,4.80
2009,03,18,05,41,4.90
2009,03,18,05,42,4.90
2009,03,18,05,43,4.90
2009,03,18,05,44,4.90
2009,03,18,05,45,4.90
2009,03,18,05,46,4.80
2009,03,18,05,47,4.80
2009,03,18,05,48,4.80
2009,03,18,05,49,4.80
2009,03,18,05,50,4.80
2009,03,18,05,51,4.80
2009,03,18,05,52,4.80
2009,03,18,05,53,4.80
2009,03,18,05,54,4.80
2009,03,18,05,55,4.80
2009,03,18,05,56,4.80
2009,03,18,05,57,4.80
2009,03,18,05,58,4.80
2009,03,18,05,59,4.80
2009,03,18,06,00,4.80
2009,03,18,06,01,4.80
2009,03,18,06,02,4.80
2009,03,18,06,03,4.80
2009,03,18,06,04,4.80
2009,03,18,06,05,4.80
2009,03,18,06,06,4.90
2009,03,18,06,07,4.90
2009,03,18,06,08,4.90
2009,03,18,06,09,4.90
2009,03,18,06,10,4.90
2009,03,18,06,11,4.90
2009,03,18,06,12,4.90
2009,03,18,06,13,4.90
2009,03,18,06,14,4.80
2009,03,18,06,15,4.80
2009,03,18,06,16,4.80
2009,03,18,06,17,4.80
2009,03,18,06,18,4.80
2009,03,18,06,19,4.80
2009,03,18,06,20,4.80
2009,03,18,06,21,4.80
2009,03,18,06,22,4.80
2009,03,18,06,23,4.80
2009,03,18,06,24,4.80
2009,03,18,06,25,4.80
2009,03,18,06,26,4.90
2009,03,18,06,27,4.90
2009,03,18,06,28,4.90
2009,03,18,06,29,4.90
2009,03,18,06,30,4.90
2009,03,18,06,31,4.90
2009,03,18,06,32,4.90
2009,03,18,06,33,4.90
2009,03,18,06,34,4.90
2009,03,18,06,35,4.90
2009,03,18,06,36,4.90
2009,03,18,06,37,4.90
2009,03,18,06,38,4.90
2009,03,18,06,39,4.90
2009,03,18,06,40,4.90
2009,03,18,06,41,4.90
2009,03,18,06,42,4.90
2009,03,18,06,43,4.90
2009,03,18,06,44,4.90
2009,03,18,06,45,5.00
2009,03,18,06,46,5.10
2009,03,18,06,47,5.10
2009,03,18,06,48,5.10
2009,03,18,06,49,5.10
2009,03,18,06,50,5.10
2009,03,18,06,51,5.10
2009,03,18,06,52,5.10
2009,03,18,06,53,5.10
2009,03,18,06,54,5.10
2009,03,18,06,55,5.10
2009,03,18,06,56,5.10
2009,03,18,06,57,5.10
2009,03,18,06,58,5.10
2009,03,18,06,59,5.10
2009,03,18,07,00,5.10
2009,03,18,07,01,5.10
2009,03,18,07,02,5.10
2009,03,18,07,03,5.10
2009,03,18,07,04,5.10
2009,03,18,07,05,5.10
2009,03,18,07,06,5.10
2009,03,18,07,07,5.10
2009,03,18,07,08,5.10
2009,03,18,07,09,5.10
2009,03,18,07,10,5.10
2009,03,18,07,11,5.10
2009,03,18,07,12,5.10
2009,03,18,07,13,5.10
2009,03,18,07,14,5.20
2009,03,18,07,15,5.20
2009,03,18,07,16,5.20
2009,03,18,07,17,5.20
2009,03,18,07,18,5.20
2009,03,18,07,19,5.20
2009,03,18,07,20,5.20
2009,03,18,07,21,5.20
2009,03,18,07,22,5.20
2009,03,18,07,23,5.20
2009,03,18,07,24,5.20
2009,03,18,07,25,5.20
2009,03,18,07,26,5.30
2009,03,18,07,27,5.30
2009,03,18,07,28,5.30
2009,03,18,07,29,5.30
2009,03,18,07,30,5.30
2009,03,18,07,31,5.30
2009,03,18,07,32,5.30
2009,03,18,07,33,5.30
2009,03,18,07,34,5.30
2009,03,18,07,35,5.30
2009,03,18,07,36,5.30
2009,03,18,07,37,5.30
2009,03,18,07,38,5.30
2009,03,18,07,39,5.30
2009,03,18,07,40,5.30
2009,03,18,07,41,5.30
2009,03,18,07,42,5.30
2009,03,18,07,43,5.30
2009,03,18,07,44,5.30
2009,03,18,07,45,5.30
2009,03,18,07,46,5.30
2009,03,18,07,47,5.30
2009,03,18,07,48,5.30
2009,03,18,07,49,5.30
2009,03,18,07,50,5.30
2009,03,18,07,51,5.30
2009,03,18,07,52,5.30
2009,03,18,07,53,5.30
2009,03,18,07,54,5.30
2009,03,18,07,55,5.30
2009,03,18,07,56,5.30
2009,03,18,07,57,5.30
2009,03,18,07,58,5.30
2009,03,18,07,59,5.30
2009,03,18,08,00,5.30
2009,03,18,08,01,5.30
2009,03,18,08,02,5.30
2009,03,18,08,03,5.30
2009,03,18,08,04,5.40
2009,03,18,08,05,5.40
2009,03,18,08,06,5.40
2009,03,18,08,07,5.40
2009,03,18,08,08,5.40
2009,03,18,08,09,5.40
2009,03,18,08,10,5.40
2009,03,18,08,11,5.40
2009,03,18,08,12,5.40
2009,03,18,08,13,5.40
2009,03,18,08,14,5.40
2009,03,18,08,15,5.40
2009,03,18,08,16,5.40
2009,03,18,08,17,5.40
2009,03,18,08,18,5.40
2009,03,18,08,19,5.40
2009,03,18,08,20,5.40
2009,03,18,08,21,5.40
2009,03,18,08,22,5.40
2009,03,18,08,23,5.40
2009,03,18,08,24,5.40
2009,03,18,08,25,5.40
2009,03,18,08,26,5.40
2009,03,18,08,27,5.40
2009,03,18,08,28,5.40
2009,03,18,08,29,5.40
2009,03,18,08,30,5.40
2009,03,18,08,31,5.40
2009,03,18,08,32,5.40
2009,03,18,08,33,5.40
2009,03,18,08,34,5.40
2009,03,18,08,35,5.40
2009,03,18,08,36,5.40
2009,03,18,08,37,5.40
2009,03,18,08,38,5.30
2009,03,18,08,39,5.40
2009,03,18,08,40,5.40
2009,03,18,08,41,5.40
2009,03,18,08,42,5.40
2009,03,18,08,43,5.40
2009,03,18,08,44,5.40
2009,03,18,08,45,5.40
2009,03,18,08,46,5.40
2009,03,18,08,47,5.40
2009,03,18,08,48,5.30
2009,03,18,08,49,5.30
2009,03,18,08,50,5.30
2009,03,18,08,51,5.30
2009,03,18,08,52,5.40
2009,03,18,08,53,5.40
2009,03,18,08,54,5.40
2009,03,18,08,55,5.40
2009,03,18,08,56,5.40
2009,03,18,08,57,5.40
2009,03,18,08,58,5.50
2009,03,18,08,59,5.50
2009,03,18,09,00,5.50
2009,03,18,09,01,5.50
2009,03,18,09,02,5.50
2009,03,18,09,03,5.50
2009,03,18,09,04,5.60
2009,03,18,09,05,5.60
2009,03,18,09,06,5.50
2009,03,18,09,07,5.60
2009,03,18,09,08,5.60
2009,03,18,09,09,5.60
2009,03,18,09,10,5.60
2009,03,18,09,11,5.60
2009,03,18,09,12,5.60
2009,03,18,09,13,5.60
2009,03,18,09,14,5.60
2009,03,18,09,15,5.60
2009,03,18,09,16,5.60
2009,03,18,09,17,5.60
2009,03,18,09,18,5.60
2009,03,18,09,19,5.60
2009,03,18,09,20,5.60
2009,03,18,09,21,5.60
2009,03,18,09,22,5.50
2009,03,18,09,23,5.50
2009,03,18,09,24,5.50
2009,03,18,09,25,5.50
2009,03,18,09,26,5.50
2009,03,18,09,27,5.50
2009,03,18,09,28,5.50
2009,03,18,09,29,5.60
2009,03,18,09,30,5.50
2009,03,18,09,31,5.50
2009,03,18,09,32,5.60
2009,03,18,09,33,5.60
2009,03,18,09,34,5.60
2009,03,18,09,35,5.60
2009,03,18,09,36,5.60
2009,03,18,09,37,5.60
2009,03,18,09,38,5.60
2009,03,18,09,39,5.70
2009,03,18,09,40,5.70
2009,03,18,09,41,5.70
2009,03,18,09,42,5.70
2009,03,18,09,43,5.70
2009,03,18,09,44,5.70
2009,03,18,09,45,5.70
2009,03,18,09,46,5.70
2009,03,18,09,47,5.70
2009,03,18,09,48,5.70
2009,03,18,09,49,5.70
2009,03,18,09,50,5.70
2009,03,18,09,51,5.70
2009,03,18,09,52,5.70
2009,03,18,09,53,5.70
2009,03,18,09,54,5.70
2009,03,18,09,55,5.70
2009,03,18,09,56,5.70
2009,03,18,09,57,5.70
2009,03,18,09,58,5.70
2009,03,18,09,59,5.70
2009,03,18,10,00,5.70
2009,03,18,10,01,5.70
2009,03,18,10,02,5.70
2009,03,18,10,03,5.70
2009,03,18,10,04,5.70
2009,03,18,10,05,5.70
2009,03,18,10,06,5.70
2009,03,18,10,07,5.70
2009,03,18,10,08,5.70
2009,03,18,10,09,5.80
2009,03,18,10,10,5.80
2009,03,18,10,11,5.80
2009,03,18,10,12,5.90
2009,03,18,10,13,5.90
2009,03,18,10,14,5.90
2009,03,18,10,15,5.90
2009,03,18,10,16,5.90
2009,03,18,10,17,5.90
2009,03,18,10,18,5.90
2009,03,18,10,19,6.00
2009,03,18,10,20,6.00
2009,03,18,10,21,6.00
2009,03,18,10,22,6.10
2009,03,18,10,23,6.10
2009,03,18,10,24,6.10
2009,03,18,10,25,6.10
2009,03,18,10,26,6.10
2009,03,18,10,27,6.10
2009,03,18,10,28,6.10
2009,03,18,10,29,6.20
2009,03,18,10,30,6.10
2009,03,18,10,31,6.10
2009,03,18,10,32,6.10
2009,03,18,10,33,6.10
2009,03,18,10,34,6.10
2009,03,18,10,35,6.10
2009,03,18,10,36,6.10
2009,03,18,10,37,6.10
2009,03,18,10,38,6.10
2009,03,18,10,39,6.10
2009,03,18,10,40,6.20
2009,03,18,10,41,6.20
2009,03,18,10,42,6.20
2009,03,18,10,43,6.20
2009,03,18,10,44,6.20
2009,03,18,10,45,6.20
2009,03,18,10,46,6.20
2009,03,18,10,47,6.30
2009,03,18,10,48,6.30
2009,03,18,10,49,6.30
2009,03,18,10,50,6.30
2009,03,18,10,51,6.30
2009,03,18,10,52,6.30
2009,03,18,10,53,6.30
2009,03,18,10,54,6.30
2009,03,18,10,55,6.30
2009,03,18,10,56,6.30
2009,03,18,10,57,6.30
2009,03,18,10,58,6.30
2009,03,18,10,59,6.30
2009,03,18,11,00,6.30
2009,03,18,11,01,6.30
2009,03,18,11,02,6.40
2009,03,18,11,03,6.40
2009,03,18,11,04,6.40
2009,03,18,11,05,6.40
2009,03,18,11,06,6.40
2009,03,18,11,07,6.40
2009,03,18,11,08,6.40
2009,03,18,11,09,6.50
2009,03,18,11,10,6.60
2009,03,18,11,11,6.60
2009,03,18,11,12,6.60
2009,03,18,11,13,6.60
2009,03,18,11,14,6.60
2009,03,18,11,15,6.60
2009,03,18,11,16,6.70
2009,03,18,11,17,6.70
2009,03,18,11,18,6.70
2009,03,18,11,19,6.70
2009,03,18,11,20,6.60
2009,03,18,11,21,6.60
2009,03,18,11,22,6.70
2009,03,18,11,23,6.70
2009,03,18,11,24,6.70
2009,03,18,11,25,6.70
2009,03,18,11,26,6.70
2009,03,18,11,27,6.70
2009,03,18,11,28,6.70
2009,03,18,11,29,6.70
2009,03,18,11,30,6.70
2009,03,18,11,31,6.80
2009,03,18,11,32,6.80
2009,03,18,11,33,6.80
2009,03,18,11,34,6.80
2009,03,18,11,35,6.90
2009,03,18,11,36,6.90
2009,03,18,11,37,6.90
2009,03,18,11,38,6.90
2009,03,18,11,39,6.90
2009,03,18,11,40,6.90
2009,03,18,11,41,7.00
2009,03,18,11,42,7.00
2009,03,18,11,43,7.00
2009,03,18,11,44,7.00
2009,03,18,11,45,7.10
2009,03,18,11,46,7.10
2009,03,18,11,47,7.10
2009,03,18,11,48,7.10
2009,03,18,11,49,7.20
2009,03,18,11,50,7.20
2009,03,18,11,51,7.20
2009,03,18,11,52,7.30
2009,03,18,11,53,7.30
2009,03,18,11,54,7.30
2009,03,18,11,55,7.30
2009,03,18,11,56,7.30
2009,03,18,11,57,7.30
2009,03,18,11,58,7.30
2009,03,18,11,59,7.30
2009,03,18,12,00,7.30
2009,03,18,12,01,7.30
2009,03,18,12,02,7.30
2009,03,18,12,03,7.30
2009,03,18,12,04,7.30
2009,03,18,12,05,7.30
2009,03,18,12,06,7.30
2009,03,18,12,07,7.30
2009,03,18,12,08,7.30
2009,03,18,12,09,7.30
2009,03,18,12,10,7.30
2009,03,18,12,11,7.30
2009,03,18,12,12,7.30
2009,03,18,12,13,7.30
2009,03,18,12,14,7.30
2009,03,18,12,15,7.30
2009,03,18,12,16,7.30
2009,03,18,12,17,7.30
2009,03,18,12,18,7.30
2009,03,18,12,19,7.30
2009,03,18,12,20,7.30
2009,03,18,12,21,7.30
2009,03,18,12,22,7.30
2009,03,18,12,23,7.30
2009,03,18,12,24,7.30
2009,03,18,12,25,7.40
2009,03,18,12,26,7.40
2009,03,18,12,27,7.40
2009,03,18,12,28,7.40
2009,03,18,12,29,7.40
2009,03,18,12,30,7.40
2009,03,18,12,31,7.40
2009,03,18,12,32,7.40
2009,03,18,12,33,7.50
2009,03,18,12,34,7.50
2009,03,18,12,35,7.50
2009,03,18,12,36,7.50
2009,03,18,12,37,7.60
2009,03,18,12,38,7.60
2009,03,18,12,39,7.60
2009,03,18,12,40,7.70
2009,03,18,12,41,7.70
2009,03,18,12,42,7.80
2009,03,18,12,43,7.80
2009,03,18,12,44,7.80
2009,03,18,12,45,7.80
2009,03,18,12,46,7.80
2009,03,18,12,47,7.80
2009,03,18,12,48,7.80
2009,03,18,12,49,7.80
2009,03,18,12,50,7.80
2009,03,18,12,51,7.80
2009,03,18,12,52,7.70
2009,03,18,12,53,7.70
2009,03,18,12,54,7.70
2009,03,18,12,55,7.60
2009,03,18,12,56,7.60
2009,03,18,12,57,7.60
2009,03,18,12,58,7.70
2009,03,18,12,59,7.70
2009,03,18,13,00,7.70
2009,03,18,13,01,7.80
2009,03,18,13,02,7.80
2009,03,18,13,03,7.80
2009,03,18,13,04,7.80
2009,03,18,13,05,7.80
2009,03,18,13,06,7.80
2009,03,18,13,07,7.80
2009,03,18,13,08,7.80
2009,03,18,13,09,7.80
2009,03,18,13,10,7.80
2009,03,18,13,11,7.80
2009,03,18,13,12,7.90
2009,03,18,13,13,7.90
2009,03,18,13,14,7.90
2009,03,18,13,15,8.00
2009,03,18,13,16,8.00
2009,03,18,13,17,8.00
2009,03,18,13,18,8.00
2009,03,18,13,19,8.10
2009,03,18,13,20,8.10
2009,03,18,13,21,8.10
2009,03,18,13,22,8.10
2009,03,18,13,23,8.20
2009,03,18,13,24,8.20
2009,03,18,13,25,8.20
2009,03,18,13,26,8.20
2009,03,18,13,27,8.20
2009,03,18,13,28,8.20
2009,03,18,13,29,8.20
2009,03,18,13,30,8.30
2009,03,18,13,31,8.30
2009,03,18,13,32,8.30
2009,03,18,13,33,8.30
2009,03,18,13,34,8.30
2009,03,18,13,35,8.30
2009,03,18,13,36,8.40
2009,03,18,13,37,8.40
2009,03,18,13,38,8.40
2009,03,18,13,39,8.50
2009,03,18,13,40,8.50
2009,03,18,13,41,8.50
2009,03,18,13,42,8.50
2009,03,18,13,43,8.60
2009,03,18,13,44,8.60
2009,03,18,13,45,8.60
2009,03,18,13,46,8.60
2009,03,18,13,47,8.60
2009,03,18,13,48,8.60
2009,03,18,13,49,8.60
2009,03,18,13,50,8.70
2009,03,18,13,51,8.60
2009,03,18,13,52,8.50
2009,03,18,13,53,8.50
2009,03,18,13,54,8.50
2009,03,18,13,55,8.60
2009,03,18,13,56,8.60
2009,03,18,13,57,8.60
2009,03,18,13,58,8.60
2009,03,18,13,59,8.60
2009,03,18,14,00,8.70
2009,03,18,14,01,8.70
2009,03,18,14,02,8.70
2009,03,18,14,03,8.70
2009,03,18,14,04,8.70
2009,03,18,14,05,8.60
2009,03,18,14,06,8.70
2009,03,18,14,07,8.70
2009,03,18,14,08,8.70
2009,03,18,14,09,8.70
2009,03,18,14,10,8.70
2009,03,18,14,11,8.70
2009,03,18,14,12,8.70
2009,03,18,14,13,8.70
2009,03,18,14,14,8.70
2009,03,18,14,15,8.70
2009,03,18,14,16,8.80
2009,03,18,14,17,8.80
2009,03,18,14,18,8.80
2009,03,18,14,19,8.80
2009,03,18,14,20,8.90
2009,03,18,14,21,8.90
2009,03,18,14,22,8.90
2009,03,18,14,23,8.90
2009,03,18,14,24,8.90
2009,03,18,14,25,8.90
2009,03,18,14,26,8.90
2009,03,18,14,27,8.80
2009,03,18,14,28,8.90
2009,03,18,14,29,8.80
2009,03,18,14,30,8.80
2009,03,18,14,31,8.80
2009,03,18,14,32,8.80
2009,03,18,14,33,8.80
2009,03,18,14,34,8.80
2009,03,18,14,35,8.80
2009,03,18,14,36,8.80
2009,03,18,14,37,8.80
2009,03,18,14,38,8.80
2009,03,18,14,39,8.80
2009,03,18,14,40,8.70
2009,03,18,14,41,8.70
2009,03,18,14,42,8.70
2009,03,18,14,43,8.70
2009,03,18,14,44,8.70
2009,03,18,14,45,8.70
2009,03,18,14,46,8.70
2009,03,18,14,47,8.70
2009,03,18,14,48,8.70
2009,03,18,14,49,8.70
2009,03,18,14,50,8.70
2009,03,18,14,51,8.70
2009,03,18,14,52,8.70
2009,03,18,14,53,8.70
2009,03,18,14,54,8.70
2009,03,18,14,55,8.70
2009,03,18,14,56,8.80
2009,03,18,14,57,8.80
2009,03,18,14,58,8.80
2009,03,18,14,59,8.80
2009,03,18,15,00,8.80
2009,03,18,15,01,8.70
2009,03,18,15,02,8.80
2009,03,18,15,03,8.80
2009,03,18,15,04,8.70
2009,03,18,15,05,8.70
2009,03,18,15,06,8.70
2009,03,18,15,07,8.70
2009,03,18,15,08,8.70
2009,03,18,15,09,8.70
2009,03,18,15,10,8.70
2009,03,18,15,11,8.70
2009,03,18,15,12,8.80
2009,03,18,15,13,8.80
2009,03,18,15,14,8.80
2009,03,18,15,15,8.80
2009,03,18,15,16,8.80
2009,03,18,15,17,8.90
2009,03,18,15,18,8.90
2009,03,18,15,19,8.90
2009,03,18,15,20,8.90
2009,03,18,15,21,9.00
2009,03,18,15,22,9.00
2009,03,18,15,23,9.00
2009,03,18,15,24,9.10
2009,03,18,15,25,9.10
2009,03,18,15,26,9.10
2009,03,18,15,27,9.10
2009,03,18,15,28,9.10
2009,03,18,15,29,9.20
2009,03,18,15,30,9.20
2009,03,18,15,31,9.20
2009,03,18,15,32,9.10
2009,03,18,15,33,9.10
2009,03,18,15,34,9.10
2009,03,18,15,35,9.10
2009,03,18,15,36,9.10
2009,03,18,15,37,9.10
2009,03,18,15,38,9.20
2009,03,18,15,39,9.20
2009,03,18,15,40,9.20
2009,03,18,15,41,9.30
2009,03,18,15,42,9.30
2009,03,18,15,43,9.40
2009,03,18,15,44,9.40
2009,03,18,15,45,9.50
2009,03,18,15,46,9.50
2009,03,18,15,47,9.50
2009,03,18,15,48,9.40
2009,03,18,15,49,9.40
2009,03,18,15,50,9.30
2009,03,18,15,51,9.30
2009,03,18,15,52,9.30
2009,03,18,15,53,9.40
2009,03,18,15,54,9.40
2009,03,18,15,55,9.40
2009,03,18,15,56,9.50
2009,03,18,15,57,9.50
2009,03,18,15,58,9.60
2009,03,18,15,59,9.60
2009,03,18,16,00,9.50
2009,03,18,16,01,9.50
2009,03,18,16,02,9.60
2009,03,18,16,03,9.60
2009,03,18,16,04,9.70
2009,03,18,16,05,9.70
2009,03,18,16,06,9.70
2009,03,18,16,07,9.70
2009,03,18,16,08,9.70
2009,03,18,16,09,9.70
2009,03,18,16,10,9.70
2009,03,18,16,11,9.70
2009,03,18,16,12,9.80
2009,03,18,16,13,9.80
2009,03,18,16,14,9.80
2009,03,18,16,15,9.90
2009,03,18,16,16,9.90
2009,03,18,16,17,10.00
2009,03,18,16,18,10.10
2009,03,18,16,19,10.10
2009,03,18,16,20,10.10
2009,03,18,16,21,10.00
2009,03,18,16,22,9.90
2009,03,18,16,23,9.90
2009,03,18,16,24,9.80
2009,03,18,16,25,9.90
2009,03,18,16,26,9.90
2009,03,18,16,27,10.00
2009,03,18,16,28,10.10
2009,03,18,16,29,10.10
2009,03,18,16,30,10.20
2009,03,18,16,31,10.30
2009,03,18,16,32,10.30
2009,03,18,16,33,10.40
2009,03,18,16,34,10.40
2009,03,18,16,35,10.40
2009,03,18,16,36,10.40
2009,03,18,16,37,10.40
2009,03,18,16,38,10.40
2009,03,18,16,39,10.50
2009,03,18,16,40,10.60
2009,03,18,16,41,10.60
2009,03,18,16,42,10.60
2009,03,18,16,43,10.60
2009,03,18,16,44,10.40
2009,03,18,16,45,10.40
2009,03,18,16,46,10.40
2009,03,18,16,47,10.30
2009,03,18,16,48,10.20
2009,03,18,16,49,10.10
2009,03,18,16,50,10.10
2009,03,18,16,51,10.10
2009,03,18,16,52,10.10
2009,03,18,16,53,10.10
2009,03,18,16,54,10.10
2009,03,18,16,55,9.90
2009,03,18,16,56,9.90
2009,03,18,16,57,10.00
2009,03,18,16,58,10.10
2009,03,18,16,59,10.10
2009,03,18,17,00,10.10
2009,03,18,17,01,10.10
2009,03,18,17,02,10.10
2009,03,18,17,03,10.10
2009,03,18,17,04,10.10
2009,03,18,17,05,10.10
2009,03,18,17,06,10.10
2009,03,18,17,07,10.10
2009,03,18,17,08,10.10
2009,03,18,17,09,10.10
2009,03,18,17,10,10.10
2009,03,18,17,11,10.10
2009,03,18,17,12,10.10
2009,03,18,17,13,10.20
2009,03,18,17,14,10.20
2009,03,18,17,15,10.20
2009,03,18,17,16,10.20
2009,03,18,17,17,10.20
2009,03,18,17,18,10.10
2009,03,18,17,19,10.10
2009,03,18,17,20,10.10
2009,03,18,17,21,10.10
2009,03,18,17,22,10.10
2009,03,18,17,23,10.10
2009,03,18,17,24,10.10
2009,03,18,17,25,10.10
2009,03,18,17,26,10.10
2009,03,18,17,27,10.10
2009,03,18,17,28,10.10
2009,03,18,17,29,10.00
2009,03,18,17,30,9.90
2009,03,18,17,31,9.90
2009,03,18,17,32,9.90
2009,03,18,17,33,9.90
2009,03,18,17,34,9.90
2009,03,18,17,35,9.90
2009,03,18,17,36,9.90
2009,03,18,17,37,9.90
2009,03,18,17,38,9.90
2009,03,18,17,39,9.90
2009,03,18,17,40,9.90
2009,03,18,17,41,9.90
2009,03,18,17,42,9.90
2009,03,18,17,43,9.90
2009,03,18,17,44,9.90
2009,03,18,17,45,9.90
2009,03,18,17,46,9.90
2009,03,18,17,47,9.90
2009,03,18,17,48,9.90
2009,03,18,17,49,9.90
2009,03,18,17,50,9.90
2009,03,18,17,51,9.90
2009,03,18,17,52,9.90
2009,03,18,17,53,9.90
2009,03,18,17,54,10.00
2009,03,18,17,55,10.10
2009,03,18,17,56,10.10
2009,03,18,17,57,10.10
2009,03,18,17,58,10.10
2009,03,18,17,59,10.00
2009,03,18,18,00,9.90
2009,03,18,18,01,9.90
2009,03,18,18,02,9.90
2009,03,18,18,03,9.90